Woodinville, Washington, United States (98072)
Lat: 47.75N, Lon: 122.16W
Wx Zone: WAZ505
Local Info
Past Weather Observations for Thursday, October 23, 2014

NOTE: This archive is for the closest National Weather Service station to Woodinville. Information may differ from the station used for current weather conditions.

Click here for Long-term Archive

Time Weather Temperature Dewpoint Humidity Pressure Winds Precip Visibility
23:53
Overcast
48°F / 9°C 43°F / 6°C 82% 30.01 in
(1016 mb)
Variable 4.6 mph
(Variable 7 kph)
- 10SM
22:53
Clear
48°F / 9°C 43°F / 6°C 82% 30.01 in
(1016 mb)
SE 5.8 mph
(SE 9 kph)
- 10SM
21:53
Clear
48°F / 9°C 43°F / 6°C 82% 30.01 in
(1016 mb)
ESE 4.6 mph
(ESE 7 kph)
- 10SM
21:35
Partly Cloudy
48°F / 9°C 45°F / 7°C 87% 29.98 in
(1015 mb)
SE 5.8 mph
(SE 9 kph)
- 10SM
20:53
Mostly Cloudy
48°F / 9°C 45°F / 7°C 87% 29.98 in
(1015 mb)
ESE 5.8 mph
(ESE 9 kph)
- 10SM
20:46
Partly Cloudy
48°F / 9°C 45°F / 7°C 87% 29.98 in
(1015 mb)
E 5.8 mph
(E 9 kph)
- 10SM
20:39
Mostly Cloudy
48°F / 9°C 45°F / 7°C 87% 29.98 in
(1015 mb)
E 5.8 mph
(E 9 kph)
- 10SM
19:53
Clear
48°F / 9°C 45°F / 7°C 87% 29.95 in
(1014 mb)
SSE 6.9 mph
(SSE 11 kph)
- 10SM
18:53
Partly Cloudy
48°F / 9°C 45°F / 7°C 87% 29.95 in
(1014 mb)
S 9.2 mph
(S 15 kph)
- 10SM
17:53
Clear
50°F / 10°C 43°F / 6°C 76% 29.92 in
(1013 mb)
S 13.8 mph
(S 22 kph)
- 10SM
16:53
Clear
52°F / 11°C 43°F / 6°C 72% 29.89 in
(1012 mb)
S 12.7 mph
(S 20 kph)
- 10SM
15:53
Partly Cloudy
54°F / 12°C 43°F / 6°C 67% 29.86 in
(1011 mb)
S 16.1 mph
(S 26 kph)
- 10SM
14:53
Partly Cloudy
55°F / 13°C 46°F / 8°C 72% 29.86 in
(1011 mb)
S 21.9 mph
(S 35 kph)
- 10SM
13:53
Partly Cloudy
55°F / 13°C 45°F / 7°C 67% 29.83 in
(1010 mb)
S 18.4 mph
(S 30 kph)
- 10SM
12:53
Clear
55°F / 13°C 46°F / 8°C 72% 29.8 in
(1009 mb)
SSE 19.6 mph
(SSE 32 kph)
- 10SM
12:13
Partly Cloudy
55°F / 13°C 46°F / 8°C 72% 29.8 in
(1009 mb)
S 21.9 mph
(S 35 kph)
- 10SM
11:53
Mostly Cloudy
54°F / 12°C 46°F / 8°C 77% 29.8 in
(1009 mb)
SSE 19.6 mph
(SSE 32 kph)
- 10SM
11:38
Overcast
54°F / 12°C 46°F / 8°C 77% 29.8 in
(1009 mb)
SSE 21.9 mph
(SSE 35 kph)
- 10SM
10:53
Clear
54°F / 12°C 46°F / 8°C 77% 29.77 in
(1008 mb)
S 20.7 mph
(S 33 kph)
- 10SM
09:53
Mostly Cloudy
52°F / 11°C 48°F / 9°C 88% 29.77 in
(1008 mb)
S 19.6 mph
(S 32 kph)
0.00 in
(0.00 mm)
10SM
08:53
Overcast
Light Rain
50°F / 10°C 46°F / 8°C 88% 29.77 in
(1008 mb)
S 15 mph
(S 24 kph)
0.05 in
(1.27 mm)
10SM
07:53
Overcast
Light Rain
50°F / 10°C 46°F / 8°C 88% 29.74 in
(1007 mb)
S 11.5 mph
(S 19 kph)
0.00 in
(0.00 mm)
10SM
06:53
Overcast
52°F / 11°C 46°F / 8°C 82% 29.71 in
(1006 mb)
SSE 18.4 mph
(SSE 30 kph)
0.02 in
(0.51 mm)
10SM
05:53
Overcast
Light Rain
52°F / 11°C 46°F / 8°C 82% 29.71 in
(1006 mb)
S 16.1 mph
(S 26 kph)
0.00 in
(0.00 mm)
10SM
04:53
Overcast
52°F / 11°C 46°F / 8°C 82% 29.71 in
(1006 mb)
SSE 8.1 mph
(SSE 13 kph)
- 10SM
03:53
Partly Cloudy
52°F / 11°C 46°F / 8°C 82% 29.71 in
(1006 mb)
S 9.2 mph
(S 15 kph)
- 10SM
02:53
Clear
52°F / 11°C 46°F / 8°C 82% 29.71 in
(1006 mb)
SSE 15 mph
(SSE 24 kph)
- 10SM
01:53
Clear
52°F / 11°C 48°F / 9°C 88% 29.71 in
(1006 mb)
S 15 mph
(S 24 kph)
- 10SM
00:53
Partly Cloudy
54°F / 12°C 48°F / 9°C 82% 29.71 in
(1006 mb)
S 16.1 mph
(S 26 kph)
- 10SM
00:40
Partly Cloudy
54°F / 12°C 48°F / 9°C 82% 29.71 in
(1006 mb)
S 16.1 mph
(S 26 kph)
- 10SM
00:36
Mostly Cloudy
54°F / 12°C 48°F / 9°C 82% 29.71 in
(1006 mb)
S 17.3 mph
(S 28 kph)
- 10SM
00:29
Mostly Cloudy
54°F / 12°C 48°F / 9°C 82% 29.71 in
(1006 mb)
S 17.3 mph
(S 28 kph)
- 10SM
Time Weather Temperature Dewpoint Humidity Pressure Winds Precip Visibility


Weather for websites

WeatherForYou.com, LLC is not responsible for any damages or problems caused by this service. Current weather conditions are obtained from the closest station including government and personal stations which may have varying degrees of accuracy. Weather forecasts are derived from the NOAA NDFD. Like all things, this site belongs to Jesus Christ... He just trusts me to maintain it. If you have any questions or comments email webmaster@weatherforyou.com

Copyright © 2014, WeatherForYou.com LLC. All rights reserved.